Wetterdaten: aktuell Freitag, 19.07.2019 02:30
Datum Zeit Temp. I. Temp. A. Temp. 2 Temp. Wind Windchill X Feuchte I. Feuchte A. Feuchte 2 Luftdruck Regen Wind Richtung Richtung Taupunkt Windchill Windben
19.07.2019 02:30 22,8 C 16,6 C 19,7 C 16,5 C 16,4 C 53 % 80 % 63 % 1012,9 hPa 0,0 mm 0,7 km/h (0 Bft) S 180 13,1 C 16,6 C 1,6 km/h (1 Bft)
19.07.2019 02:25 22,8 C 16,6 C 19,7 C 16,5 C 16,3 C 53 % 80 % 63 % 1012,9 hPa 0,0 mm 0,2 km/h (0 Bft) SW 225 13,1 C 16,6 C 2,4 km/h (1 Bft)
19.07.2019 02:20 22,8 C 16,6 C 19,7 C 16,5 C 16,3 C 53 % 79 % 63 % 1012,9 hPa 0,0 mm 0,0 km/h (0 Bft) SW 225 12,9 C 16,6 C 0,0 km/h (0 Bft)
19.07.2019 02:15 22,8 C 16,6 C 19,7 C 16,5 C 16,3 C 53 % 79 % 63 % 1012,9 hPa 0,0 mm 0,0 km/h (0 Bft) S 180 12,9 C 16,6 C 0,0 km/h (0 Bft)
19.07.2019 02:10 22,8 C 16,6 C 19,7 C 16,5 C 16,3 C 53 % 79 % 63 % 1012,9 hPa 0,0 mm 0,2 km/h (0 Bft) S 180 12,9 C 16,6 C 0,0 km/h (0 Bft)
19.07.2019 02:05 22,8 C 16,7 C 19,7 C 16,6 C 16,3 C 53 % 79 % 63 % 1012,9 hPa 0,0 mm 0,2 km/h (0 Bft) S-SW 202 13,0 C 16,7 C 0,0 km/h (0 Bft)
19.07.2019 02:00 22,9 C 16,7 C 19,7 C 16,6 C 16,3 C 53 % 78 % 63 % 1012,9 hPa 0,0 mm 0,2 km/h (0 Bft) S-SW 202 12,8 C 16,7 C 0,0 km/h (0 Bft)
19.07.2019 01:55 22,9 C 16,7 C 19,7 C 16,6 C 16,3 C 53 % 78 % 63 % 1012,9 hPa 0,0 mm 0,0 km/h (0 Bft) SW 225 12,8 C 16,7 C 0,0 km/h (0 Bft)
19.07.2019 01:50 22,9 C 16,8 C 19,7 C 16,7 C 16,4 C 53 % 78 % 63 % 1012,9 hPa 0,0 mm 0,0 km/h (0 Bft) SW 225 12,9 C 16,8 C 0,0 km/h (0 Bft)
19.07.2019 01:45 22,9 C 16,9 C 19,6 C 16,8 C 16,5 C 53 % 77 % 63 % 1012,9 hPa 0,0 mm 0,0 km/h (0 Bft) SW 225 12,8 C 16,9 C 0,0 km/h (0 Bft)
19.07.2019 01:40 23,0 C 17,0 C 19,6 C 16,9 C 16,7 C 53 % 77 % 63 % 1012,9 hPa 0,0 mm 0,0 km/h (0 Bft) SW 225 12,9 C 17,0 C 0,0 km/h (0 Bft)
19.07.2019 01:35 22,9 C 17,1 C 19,6 C 17,0 C 16,8 C 53 % 77 % 63 % 1012,9 hPa 0,0 mm 0,0 km/h (0 Bft) SW 225 13,0 C 17,1 C 0,0 km/h (0 Bft)
19.07.2019 01:30 23,0 C 17,1 C 19,6 C 17,0 C 16,8 C 53 % 76 % 63 % 1013,1 hPa 0,0 mm 0,0 km/h (0 Bft) SW 225 12,8 C 17,1 C 0,0 km/h (0 Bft)
19.07.2019 01:25 23,0 C 17,1 C 19,6 C 17,0 C 16,8 C 53 % 76 % 63 % 1013,1 hPa 0,0 mm 0,0 km/h (0 Bft) S 180 12,8 C 17,1 C 0,0 km/h (0 Bft)
19.07.2019 01:20 23,0 C 17,2 C 19,6 C 17,1 C 16,8 C 53 % 75 % 63 % 1013,1 hPa 0,0 mm 0,0 km/h (0 Bft) SW 225 12,7 C 17,2 C 0,0 km/h (0 Bft)
19.07.2019 01:15 23,0 C 17,3 C 19,6 C 17,2 C 16,9 C 53 % 75 % 63 % 1013,1 hPa 0,0 mm 0,0 km/h (0 Bft) SW 225 12,8 C 17,3 C 0,0 km/h (0 Bft)
19.07.2019 01:10 23,0 C 17,5 C 19,6 C 17,4 C 17,1 C 53 % 75 % 63 % 1012,9 hPa 0,0 mm 0,2 km/h (0 Bft) W-SW 247 13,0 C 17,5 C 0,0 km/h (0 Bft)
19.07.2019 01:05 23,0 C 17,5 C 19,6 C 17,4 C 17,1 C 53 % 75 % 63 % 1012,9 hPa 0,0 mm 0,2 km/h (0 Bft) W-SW 247 13,0 C 17,5 C 3,1 km/h (1 Bft)
19.07.2019 01:00 23,0 C 17,6 C 19,6 C 17,4 C 17,1 C 53 % 74 % 63 % 1012,9 hPa 0,0 mm 0,0 km/h (0 Bft) W-SW 247 12,9 C 17,6 C 0,0 km/h (0 Bft)
19.07.2019 00:55 23,0 C 17,7 C 19,6 C 17,5 C 17,2 C 53 % 74 % 63 % 1012,9 hPa 0,0 mm 0,0 km/h (0 Bft) W-SW 247 13,0 C 17,7 C 0,0 km/h (0 Bft)
19.07.2019 00:50 23,1 C 17,8 C 19,6 C 17,6 C 17,3 C 53 % 73 % 63 % 1012,9 hPa 0,0 mm 0,0 km/h (0 Bft) W-SW 247 12,9 C 17,8 C 0,0 km/h (0 Bft)
19.07.2019 00:45 23,1 C 17,9 C 19,6 C 17,8 C 17,5 C 53 % 73 % 63 % 1012,9 hPa 0,0 mm 0,0 km/h (0 Bft) W-SW 247 13,0 C 17,9 C 0,0 km/h (0 Bft)
19.07.2019 00:40 23,1 C 18,0 C 19,6 C 17,9 C 17,7 C 53 % 73 % 63 % 1012,9 hPa 0,0 mm 0,2 km/h (0 Bft) S 180 13,1 C 18,0 C 0,0 km/h (0 Bft)
19.07.2019 00:35 23,1 C 18,1 C 19,5 C 18,0 C 17,7 C 53 % 73 % 63 % 1012,9 hPa 0,0 mm 0,2 km/h (0 Bft) W-SW 247 13,2 C 18,1 C 0,0 km/h (0 Bft)
19.07.2019 00:30 23,2 C 18,1 C 19,5 C 18,0 C 17,8 C 52 % 72 % 63 % 1012,9 hPa 0,0 mm 0,0 km/h (0 Bft) SW 225 13,0 C 18,1 C 1,9 km/h (1 Bft)
19.07.2019 00:25 23,2 C 18,2 C 19,5 C 18,1 C 17,8 C 53 % 72 % 63 % 1012,9 hPa 0,0 mm 0,0 km/h (0 Bft) SW 225 13,1 C 18,2 C 0,0 km/h (0 Bft)
19.07.2019 00:20 23,2 C 18,3 C 19,5 C 18,2 C 18,0 C 52 % 72 % 63 % 1012,9 hPa 0,0 mm 0,0 km/h (0 Bft) W 270 13,2 C 18,3 C 0,0 km/h (0 Bft)
19.07.2019 00:15 23,2 C 18,4 C 19,5 C 18,3 C 18,0 C 52 % 71 % 63 % 1012,9 hPa 0,0 mm 0,0 km/h (0 Bft) SW 225 13,0 C 18,4 C 0,0 km/h (0 Bft)
19.07.2019 00:10 23,2 C 18,7 C 19,5 C 18,6 C 18,3 C 52 % 71 % 63 % 1012,9 hPa 0,0 mm 0,0 km/h (0 Bft) SW 225 13,3 C 18,7 C 0,0 km/h (0 Bft)
19.07.2019 00:05 23,2 C 18,7 C 19,5 C 18,6 C 18,3 C 52 % 71 % 63 % 1012,9 hPa 0,0 mm 0,0 km/h (0 Bft) SW 225 13,3 C 18,7 C 0,0 km/h (0 Bft)
19.07.2019 00:00 23,2 C 18,8 C 19,5 C 18,7 C 18,4 C 52 % 71 % 63 % 1012,9 hPa 0,0 mm 0,2 km/h (0 Bft) SW 225 13,4 C 18,8 C 0,0 km/h (0 Bft)
18.07.2019 23:55 23,2 C 18,9 C 19,5 C 18,8 C 18,5 C 52 % 70 % 63 % 1012,9 hPa 0,0 mm 0,2 km/h (0 Bft) W 270 13,3 C 18,9 C 0,0 km/h (0 Bft)
18.07.2019 23:50 23,2 C 18,9 C 19,5 C 18,8 C 18,7 C 52 % 70 % 63 % 1012,6 hPa 0,0 mm 0,5 km/h (0 Bft) W-SW 247 13,3 C 18,9 C 1,8 km/h (1 Bft)
18.07.2019 23:45 23,3 C 19,1 C 19,5 C 19,0 C 18,8 C 52 % 70 % 63 % 1012,6 hPa 0,0 mm 1,1 km/h (1 Bft) NW 315 13,5 C 19,1 C 0,0 km/h (0 Bft)
18.07.2019 23:40 23,2 C 19,1 C 19,4 C 19,0 C 18,9 C 52 % 70 % 63 % 1012,6 hPa 0,0 mm 1,4 km/h (1 Bft) W-SW 247 13,5 C 19,1 C 1,6 km/h (1 Bft)
18.07.2019 23:35 23,2 C 19,2 C 19,4 C 19,1 C 19,0 C 52 % 69 % 63 % 1012,6 hPa 0,0 mm 0,9 km/h (0 Bft) SW 225 13,4 C 19,2 C 1,9 km/h (1 Bft)
18.07.2019 23:30 23,2 C 19,3 C 19,4 C 19,3 C 19,2 C 52 % 69 % 63 % 1012,9 hPa 0,0 mm 2,5 km/h (1 Bft) SW 225 13,5 C 19,3 C 0,0 km/h (0 Bft)
18.07.2019 23:25 23,2 C 19,4 C 19,4 C 19,3 C 19,2 C 52 % 69 % 63 % 1012,9 hPa 0,0 mm 3,0 km/h (1 Bft) SO 135 13,6 C 19,4 C 3,7 km/h (1 Bft)
18.07.2019 23:20 23,4 C 19,4 C 19,4 C 19,4 C 19,3 C 52 % 69 % 63 % 1012,9 hPa 0,0 mm 2,0 km/h (1 Bft) W-SW 247 13,6 C 19,4 C 5,8 km/h (2 Bft)
18.07.2019 23:15 23,2 C 19,4 C 19,4 C 19,4 C 19,3 C 52 % 69 % 63 % 1012,9 hPa 0,0 mm 2,0 km/h (1 Bft) W 270 13,6 C 19,4 C 2,7 km/h (1 Bft)
18.07.2019 23:10 23,4 C 19,5 C 19,4 C 19,4 C 19,3 C 52 % 69 % 63 % 1012,7 hPa 0,0 mm 3,2 km/h (1 Bft) W-NW 292 13,7 C 19,5 C 2,9 km/h (1 Bft)
18.07.2019 23:05 23,4 C 19,5 C 19,3 C 19,4 C 19,3 C 52 % 69 % 63 % 1012,7 hPa 0,0 mm 3,4 km/h (1 Bft) W 270 13,7 C 19,5 C 2,7 km/h (1 Bft)
18.07.2019 23:00 23,4 C 19,6 C 19,3 C 19,5 C 19,4 C 52 % 69 % 63 % 1012,7 hPa 0,0 mm 3,2 km/h (1 Bft) SW 225 13,8 C 19,6 C 3,4 km/h (1 Bft)
18.07.2019 22:55 23,4 C 19,7 C 19,3 C 19,6 C 19,5 C 52 % 69 % 63 % 1012,7 hPa 0,0 mm 3,6 km/h (1 Bft) W 270 13,8 C 19,7 C 2,1 km/h (1 Bft)
18.07.2019 22:50 23,4 C 19,7 C 19,3 C 19,7 C 19,6 C 52 % 69 % 63 % 1012,7 hPa 0,0 mm 4,3 km/h (1 Bft) NW 315 13,8 C 19,7 C 4,8 km/h (1 Bft)
18.07.2019 22:45 23,4 C 19,8 C 19,3 C 19,7 C 19,6 C 52 % 69 % 64 % 1012,7 hPa 0,0 mm 5,0 km/h (1 Bft) O-NO 67 13,9 C 19,8 C 3,9 km/h (1 Bft)
18.07.2019 22:40 23,4 C 19,8 C 19,2 C 19,8 C 19,7 C 52 % 69 % 64 % 1012,7 hPa 0,0 mm 6,4 km/h (2 Bft) SW 225 13,9 C 19,8 C 9,3 km/h (2 Bft)
18.07.2019 22:35 23,4 C 19,9 C 19,2 C 19,8 C 19,7 C 52 % 69 % 64 % 1012,7 hPa 0,0 mm 6,1 km/h (2 Bft) S 180 14,0 C 19,9 C 4,0 km/h (1 Bft)
18.07.2019 22:30 23,5 C 20,0 C 19,2 C 19,9 C 19,8 C 52 % 68 % 64 % 1012,6 hPa 0,0 mm 6,8 km/h (2 Bft) W 270 13,9 C 19,8 C 5,1 km/h (1 Bft)
18.07.2019 22:25 23,5 C 20,0 C 19,2 C 19,9 C 19,8 C 52 % 69 % 64 % 1012,6 hPa 0,0 mm 7,3 km/h (2 Bft) W 270 14,1 C 19,6 C 7,9 km/h (2 Bft)
18.07.2019 22:20 23,5 C 20,1 C 19,1 C 20,0 C 19,8 C 52 % 69 % 64 % 1012,6 hPa 0,0 mm 7,1 km/h (2 Bft) NW 315 14,2 C 19,8 C 7,4 km/h (2 Bft)
18.07.2019 22:15 23,5 C 20,1 C 19,1 C 20,0 C 19,7 C 52 % 69 % 64 % 1012,6 hPa 0,0 mm 7,5 km/h (2 Bft) NW 315 14,2 C 19,7 C 4,3 km/h (1 Bft)
18.07.2019 22:10 23,5 C 20,3 C 19,1 C 20,1 C 19,6 C 51 % 68 % 64 % 1012,2 hPa 0,0 mm 8,4 km/h (2 Bft) NW 315 14,2 C 19,5 C 4,5 km/h (1 Bft)
18.07.2019 22:05 23,5 C 20,3 C 19,1 C 20,0 C 19,5 C 51 % 67 % 64 % 1012,2 hPa 0,0 mm 8,2 km/h (2 Bft) W 270 14,0 C 19,6 C 12,1 km/h (2 Bft)
18.07.2019 22:00 23,6 C 20,3 C 19,1 C 19,9 C 19,1 C 51 % 66 % 64 % 1012,2 hPa 0,0 mm 3,9 km/h (1 Bft) W 270 13,7 C 20,3 C 4,8 km/h (1 Bft)
18.07.2019 21:55 23,6 C 20,5 C 19,1 C 20,0 C 19,0 C 51 % 65 % 64 % 1012,2 hPa 0,0 mm 3,4 km/h (1 Bft) S 180 13,7 C 20,5 C 3,5 km/h (1 Bft)
18.07.2019 21:50 23,6 C 20,8 C 19,0 C 20,5 C 19,8 C 51 % 63 % 64 % 1011,8 hPa 0,0 mm 3,0 km/h (1 Bft) S-SO 157 13,5 C 20,8 C 3,9 km/h (1 Bft)
18.07.2019 21:45 23,6 C 21,1 C 19,0 C 20,9 C 20,6 C 51 % 62 % 64 % 1011,8 hPa 0,0 mm 2,0 km/h (1 Bft) SW 225 13,5 C 21,1 C 3,4 km/h (1 Bft)
18.07.2019 21:40 23,6 C 21,1 C 19,0 C 21,0 C 20,9 C 51 % 60 % 64 % 1011,8 hPa 0,0 mm 1,4 km/h (1 Bft) S-SW 202 13,0 C 21,1 C 4,2 km/h (1 Bft)
18.07.2019 21:35 23,6 C 21,1 C 19,0 C 21,0 C 20,9 C 51 % 59 % 64 % 1011,8 hPa 0,0 mm 1,1 km/h (1 Bft) SW 225 12,8 C 21,1 C 1,9 km/h (1 Bft)
18.07.2019 21:30 23,7 C 21,2 C 18,9 C 21,1 C 21,0 C 51 % 59 % 64 % 1011,5 hPa 0,0 mm 1,4 km/h (1 Bft) W-SW 247 12,9 C 21,2 C 2,3 km/h (1 Bft)
18.07.2019 21:25 23,7 C 21,3 C 19,0 C 21,2 C 21,0 C 51 % 59 % 64 % 1011,5 hPa 0,0 mm 0,9 km/h (0 Bft) W-SW 247 13,0 C 21,3 C 2,9 km/h (1 Bft)
18.07.2019 21:20 23,7 C 21,4 C 19,0 C 21,3 C 21,0 C 51 % 58 % 64 % 1011,5 hPa 0,0 mm 0,9 km/h (0 Bft) SW 225 12,8 C 21,4 C 2,1 km/h (1 Bft)
18.07.2019 21:15 23,8 C 21,5 C 18,9 C 21,4 C 21,2 C 50 % 58 % 64 % 1011,5 hPa 0,0 mm 0,7 km/h (0 Bft) S 180 12,9 C 21,5 C 0,0 km/h (0 Bft)
18.07.2019 21:10 23,8 C 21,6 C 19,0 C 21,5 C 21,4 C 50 % 57 % 64 % 1011,2 hPa 0,0 mm 0,7 km/h (0 Bft) S 180 12,7 C 21,6 C 2,3 km/h (1 Bft)
18.07.2019 21:05 23,8 C 21,7 C 18,9 C 21,6 C 21,5 C 50 % 57 % 64 % 1011,2 hPa 0,0 mm 0,9 km/h (0 Bft) SW 225 12,8 C 21,7 C 0,0 km/h (0 Bft)
18.07.2019 21:00 23,8 C 21,9 C 18,9 C 21,8 C 21,6 C 50 % 57 % 64 % 1011,2 hPa 0,0 mm 1,6 km/h (1 Bft) W-SW 247 13,0 C 21,9 C 0,0 km/h (0 Bft)
18.07.2019 20:55 23,8 C 21,9 C 18,9 C 21,8 C 21,6 C 50 % 56 % 64 % 1011,2 hPa 0,0 mm 1,6 km/h (1 Bft) S 180 12,7 C 21,9 C 0,0 km/h (0 Bft)
18.07.2019 20:50 23,9 C 22,0 C 18,9 C 21,9 C 21,7 C 50 % 56 % 64 % 1011,5 hPa 0,0 mm 0,5 km/h (0 Bft) SW 225 12,8 C 22,0 C 2,3 km/h (1 Bft)
18.07.2019 20:45 23,9 C 22,0 C 19,0 C 21,9 C 21,8 C 49 % 56 % 64 % 1011,5 hPa 0,0 mm 0,5 km/h (0 Bft) W-SW 247 12,8 C 22,0 C 2,1 km/h (1 Bft)
18.07.2019 20:40 24,0 C 22,2 C 19,0 C 22,1 C 22,0 C 49 % 55 % 64 % 1011,5 hPa 0,0 mm 1,4 km/h (1 Bft) S 180 12,7 C 22,2 C 0,0 km/h (0 Bft)
18.07.2019 20:35 24,0 C 22,3 C 19,0 C 22,3 C 22,2 C 49 % 55 % 64 % 1011,5 hPa 0,0 mm 1,6 km/h (1 Bft) S-SO 157 12,8 C 22,3 C 2,9 km/h (1 Bft)
18.07.2019 20:30 24,1 C 22,4 C 19,0 C 22,4 C 22,4 C 49 % 55 % 64 % 1011,1 hPa 0,0 mm 1,8 km/h (1 Bft) S-SO 157 12,9 C 22,4 C 2,3 km/h (1 Bft)
18.07.2019 20:25 24,2 C 22,4 C 19,0 C 22,4 C 22,4 C 49 % 55 % 64 % 1011,1 hPa 0,0 mm 2,0 km/h (1 Bft) SW 225 12,9 C 22,4 C 2,1 km/h (1 Bft)
18.07.2019 20:20 24,2 C 22,4 C 19,0 C 22,4 C 22,4 C 49 % 54 % 64 % 1011,1 hPa 0,0 mm 1,6 km/h (1 Bft) SW 225 12,6 C 22,4 C 2,4 km/h (1 Bft)
18.07.2019 20:15 24,2 C 22,3 C 18,9 C 22,3 C 22,3 C 49 % 54 % 64 % 1011,1 hPa 0,0 mm 1,1 km/h (1 Bft) W-SW 247 12,5 C 22,3 C 2,4 km/h (1 Bft)
18.07.2019 20:10 24,2 C 22,3 C 19,0 C 22,2 C 22,0 C 49 % 54 % 64 % 1011,4 hPa 0,0 mm 0,2 km/h (0 Bft) S-SW 202 12,5 C 22,3 C 0,0 km/h (0 Bft)
18.07.2019 20:05 24,2 C 22,3 C 19,0 C 22,2 C 22,0 C 49 % 54 % 64 % 1011,4 hPa 0,0 mm 0,2 km/h (0 Bft) SW 225 12,5 C 22,3 C 0,0 km/h (0 Bft)
18.07.2019 20:00 24,2 C 22,3 C 19,0 C 22,2 C 22,0 C 49 % 53 % 64 % 1011,4 hPa 0,0 mm 0,9 km/h (0 Bft) W-SW 247 12,2 C 22,3 C 1,9 km/h (1 Bft)
18.07.2019 19:55 24,2 C 22,3 C 19,0 C 22,2 C 22,0 C 48 % 53 % 64 % 1011,4 hPa 0,0 mm 1,8 km/h (1 Bft) SW 225 12,2 C 22,3 C 0,0 km/h (0 Bft)
18.07.2019 19:50 24,2 C 22,5 C 19,0 C 22,4 C 22,1 C 48 % 52 % 64 % 1011,7 hPa 0,0 mm 2,7 km/h (1 Bft) NW 315 12,1 C 22,5 C 2,3 km/h (1 Bft)
18.07.2019 19:45 24,4 C 22,6 C 19,0 C 22,5 C 22,3 C 48 % 52 % 64 % 1011,7 hPa 0,0 mm 3,6 km/h (1 Bft) W-NW 292 12,2 C 22,6 C 2,9 km/h (1 Bft)
18.07.2019 19:40 24,4 C 22,7 C 19,0 C 22,6 C 22,4 C 48 % 51 % 64 % 1011,7 hPa 0,0 mm 5,2 km/h (1 Bft) SW 225 12,0 C 22,7 C 3,1 km/h (1 Bft)
18.07.2019 19:35 24,6 C 22,8 C 19,0 C 22,7 C 22,5 C 48 % 51 % 64 % 1011,7 hPa 0,0 mm 5,5 km/h (1 Bft) W 270 12,1 C 22,8 C 5,1 km/h (1 Bft)
18.07.2019 19:30 24,7 C 23,0 C 19,0 C 22,9 C 22,8 C 48 % 50 % 64 % 1011,0 hPa 0,0 mm 7,1 km/h (2 Bft) NW 315 12,0 C 22,8 C 5,5 km/h (1 Bft)
18.07.2019 19:25 24,8 C 23,1 C 19,0 C 23,1 C 23,1 C 47 % 50 % 64 % 1011,0 hPa 0,0 mm 7,5 km/h (2 Bft) W 270 12,1 C 22,8 C 5,0 km/h (1 Bft)
18.07.2019 19:20 24,9 C 23,5 C 19,0 C 23,7 C 23,7 C 47 % 49 % 64 % 1011,0 hPa 0,0 mm 7,3 km/h (2 Bft) N-NW 337 12,2 C 23,2 C 6,4 km/h (2 Bft)
18.07.2019 19:15 25,0 C 23,9 C 19,0 C 24,1 C 24,1 C 47 % 49 % 64 % 1011,0 hPa 0,0 mm 6,4 km/h (2 Bft) N 360 12,5 C 23,9 C 7,9 km/h (2 Bft)
18.07.2019 19:10 25,1 C 24,0 C 19,0 C 24,4 C 24,4 C 47 % 49 % 64 % 1011,0 hPa 0,0 mm 5,2 km/h (1 Bft) NW 315 12,6 C 24,0 C 4,3 km/h (1 Bft)
18.07.2019 19:05 25,0 C 24,1 C 19,0 C 24,5 C 24,5 C 47 % 48 % 64 % 1011,0 hPa 0,0 mm 5,5 km/h (1 Bft) S 180 12,4 C 24,1 C 3,4 km/h (1 Bft)
18.07.2019 19:00 25,0 C 24,1 C 19,0 C 24,4 C 24,4 C 47 % 48 % 64 % 1011,0 hPa 0,0 mm 5,9 km/h (2 Bft) W 270 12,4 C 24,1 C 5,3 km/h (1 Bft)
18.07.2019 18:55 25,0 C 24,1 C 19,0 C 24,5 C 24,5 C 47 % 48 % 64 % 1011,0 hPa 0,0 mm 6,4 km/h (2 Bft) W-SW 247 12,4 C 24,1 C 3,4 km/h (1 Bft)
18.07.2019 18:50 24,9 C 24,0 C 19,0 C 24,2 C 24,2 C 48 % 48 % 64 % 1011,1 hPa 0,0 mm 6,4 km/h (2 Bft) W-NW 292 12,3 C 24,0 C 5,8 km/h (2 Bft)
18.07.2019 18:45 24,8 C 24,0 C 19,0 C 24,0 C 23,9 C 48 % 47 % 64 % 1011,1 hPa 0,0 mm 6,6 km/h (2 Bft) W-NW 292 12,0 C 24,0 C 10,0 km/h (2 Bft)
18.07.2019 18:40 24,7 C 23,9 C 18,9 C 23,9 C 23,8 C 48 % 47 % 64 % 1011,1 hPa 0,0 mm 7,5 km/h (2 Bft) N-NW 337 11,9 C 23,6 C 5,1 km/h (1 Bft)
18.07.2019 18:35 24,8 C 23,9 C 19,0 C 23,9 C 23,8 C 48 % 46 % 64 % 1011,1 hPa 0,0 mm 7,7 km/h (2 Bft) NW 315 11,6 C 23,5 C 7,6 km/h (2 Bft)
18.07.2019 18:30 24,8 C 24,0 C 19,0 C 24,0 C 24,0 C 48 % 45 % 64 % 1010,8 hPa 0,0 mm 5,9 km/h (2 Bft) W-NW 292 11,3 C 24,0 C 8,4 km/h (2 Bft)
18.07.2019 18:25 24,9 C 24,2 C 19,0 C 24,2 C 24,2 C 48 % 45 % 64 % 1010,8 hPa 0,0 mm 5,9 km/h (2 Bft) W-NW 292 11,5 C 24,2 C 9,2 km/h (2 Bft)
18.07.2019 18:20 25,0 C 24,4 C 19,0 C 24,6 C 24,6 C 48 % 44 % 64 % 1010,8 hPa 0,0 mm 7,1 km/h (2 Bft) SW 225 11,3 C 24,2 C 4,3 km/h (1 Bft)
18.07.2019 18:15 25,0 C 24,5 C 19,0 C 24,7 C 24,7 C 48 % 44 % 64 % 1010,8 hPa 0,0 mm 7,7 km/h (2 Bft) NW 315 11,4 C 24,2 C 6,4 km/h (2 Bft)
18.07.2019 18:10 25,0 C 24,5 C 19,0 C 24,7 C 24,7 C 48 % 44 % 64 % 1010,8 hPa 0,0 mm 8,6 km/h (2 Bft) W 270 11,4 C 23,9 C 5,5 km/h (1 Bft)
18.07.2019 18:05 25,0 C 24,5 C 19,0 C 24,6 C 24,6 C 48 % 45 % 64 % 1010,8 hPa 0,0 mm 8,0 km/h (2 Bft) W 270 11,8 C 24,1 C 10,0 km/h (2 Bft)
18.07.2019 18:00 24,9 C 24,5 C 19,0 C 24,5 C 24,4 C 49 % 46 % 64 % 1010,8 hPa 0,0 mm 8,0 km/h (2 Bft) N-NW 337 12,1 C 24,1 C 5,1 km/h (1 Bft)
18.07.2019 17:55 24,9 C 24,5 C 19,0 C 24,5 C 24,4 C 48 % 45 % 64 % 1010,8 hPa 0,0 mm 7,3 km/h (2 Bft) W 270 11,8 C 24,3 C 4,2 km/h (1 Bft)
18.07.2019 17:50 25,0 C 24,7 C 19,0 C 24,7 C 24,7 C 48 % 47 % 64 % 1010,2 hPa 0,0 mm 6,6 km/h (2 Bft) S 180 12,6 C 24,7 C 5,1 km/h (1 Bft)
18.07.2019 17:45 25,0 C 24,9 C 19,0 C 24,9 C 24,8 C 48 % 47 % 64 % 1010,2 hPa 0,0 mm 6,1 km/h (2 Bft) W 270 12,8 C 24,9 C 1,6 km/h (1 Bft)
18.07.2019 17:40 25,1 C 25,0 C 19,0 C 25,0 C 25,0 C 48 % 47 % 64 % 1010,2 hPa 0,0 mm 5,5 km/h (1 Bft) S 180 12,9 C 25,0 C 6,8 km/h (2 Bft)
18.07.2019 17:35 25,1 C 25,1 C 19,0 C 25,1 C 25,0 C 48 % 47 % 64 % 1010,2 hPa 0,0 mm 5,9 km/h (2 Bft) W 270 13,0 C 25,1 C 5,3 km/h (1 Bft)
18.07.2019 17:30 25,2 C 25,3 C 19,0 C 25,3 C 25,3 C 48 % 47 % 64 % 1009,5 hPa 0,0 mm 5,7 km/h (1 Bft) SW 225 13,2 C 25,3 C 5,3 km/h (1 Bft)
18.07.2019 17:25 25,2 C 25,4 C 19,0 C 25,4 C 25,4 C 48 % 46 % 64 % 1009,5 hPa 0,0 mm 5,9 km/h (2 Bft) W 270 12,9 C 25,4 C 3,7 km/h (1 Bft)
18.07.2019 17:20 25,2 C 25,5 C 19,0 C 25,6 C 25,6 C 48 % 46 % 64 % 1009,5 hPa 0,0 mm 6,6 km/h (2 Bft) W-NW 292 13,0 C 25,5 C 5,6 km/h (1 Bft)
18.07.2019 17:15 25,4 C 25,7 C 19,0 C 25,9 C 25,9 C 47 % 46 % 64 % 1009,5 hPa 0,0 mm 6,8 km/h (2 Bft) NW 315 13,2 C 25,6 C 3,2 km/h (1 Bft)
18.07.2019 17:10 25,5 C 25,8 C 19,0 C 26,0 C 26,0 C 47 % 47 % 64 % 1009,1 hPa 0,0 mm 6,8 km/h (2 Bft) W-SW 247 13,6 C 25,7 C 5,0 km/h (1 Bft)
18.07.2019 17:05 25,6 C 25,9 C 19,0 C 26,2 C 26,2 C 47 % 46 % 64 % 1009,1 hPa 0,0 mm 7,1 km/h (2 Bft) SO 135 13,4 C 25,7 C 4,5 km/h (1 Bft)
18.07.2019 17:00 25,7 C 26,0 C 19,0 C 26,3 C 26,3 C 47 % 46 % 64 % 1009,1 hPa 0,0 mm 8,4 km/h (2 Bft) W-NW 292 13,5 C 25,6 C 6,0 km/h (2 Bft)
18.07.2019 16:55 25,8 C 26,1 C 19,0 C 26,7 C 26,7 C 47 % 46 % 64 % 1009,1 hPa 0,0 mm 9,3 km/h (2 Bft) SW 225 13,6 C 25,5 C 4,3 km/h (1 Bft)
18.07.2019 16:50 25,8 C 26,5 C 19,0 C 27,2 C 27,2 C 47 % 46 % 64 % 1009,8 hPa 0,0 mm 9,6 km/h (2 Bft) NW 315 13,9 C 25,9 C 13,0 km/h (3 Bft)
18.07.2019 16:45 25,8 C 26,6 C 19,0 C 27,6 C 27,6 C 47 % 47 % 64 % 1009,8 hPa 0,0 mm 7,7 km/h (2 Bft) SW 225 14,3 C 26,3 C 4,5 km/h (1 Bft)
18.07.2019 16:40 25,7 C 26,7 C 19,0 C 27,6 C 27,6 C 47 % 47 % 64 % 1009,8 hPa 0,0 mm 7,7 km/h (2 Bft) W 270 14,4 C 26,4 C 6,1 km/h (2 Bft)
18.07.2019 16:35 25,6 C 26,6 C 19,0 C 27,6 C 27,6 C 47 % 46 % 64 % 1009,8 hPa 0,0 mm 7,7 km/h (2 Bft) W-NW 292 14,0 C 26,3 C 11,3 km/h (2 Bft)
18.07.2019 16:30 25,4 C 26,6 C 19,0 C 27,8 C 27,8 C 47 % 47 % 64 % 1010,6 hPa 0,0 mm 7,3 km/h (2 Bft) NW 315 14,3 C 26,4 C 10,1 km/h (2 Bft)
18.07.2019 16:25 25,4 C 26,7 C 19,0 C 27,9 C 27,9 C 48 % 47 % 64 % 1010,6 hPa 0,0 mm 6,4 km/h (2 Bft) W-SW 247 14,4 C 26,7 C 5,1 km/h (1 Bft)
18.07.2019 16:20 25,2 C 26,6 C 19,0 C 28,0 C 28,0 C 48 % 48 % 64 % 1010,6 hPa 0,0 mm 6,6 km/h (2 Bft) W-SW 247 14,7 C 26,6 C 8,5 km/h (2 Bft)
18.07.2019 16:15 25,1 C 26,6 C 19,0 C 27,9 C 27,9 C 48 % 47 % 64 % 1010,6 hPa 0,0 mm 6,4 km/h (2 Bft) SW 225 14,3 C 26,6 C 3,9 km/h (1 Bft)
18.07.2019 16:10 25,0 C 26,1 C 19,0 C 26,9 C 26,9 C 48 % 49 % 64 % 1011,1 hPa 0,0 mm 8,4 km/h (2 Bft) W 270 14,5 C 25,7 C 4,5 km/h (1 Bft)
18.07.2019 16:05 25,0 C 25,7 C 19,0 C 26,3 C 26,3 C 49 % 48 % 64 % 1011,1 hPa 0,0 mm 9,3 km/h (2 Bft) S 180 13,9 C 25,1 C 3,1 km/h (1 Bft)
18.07.2019 16:00 24,9 C 25,5 C 19,0 C 25,9 C 25,9 C 49 % 48 % 64 % 1011,1 hPa 0,0 mm 8,6 km/h (2 Bft) W-SW 247 13,7 C 25,0 C 15,6 km/h (3 Bft)
18.07.2019 15:55 24,9 C 25,5 C 19,0 C 25,9 C 25,9 C 49 % 49 % 64 % 1011,1 hPa 0,0 mm 7,5 km/h (2 Bft) W-SW 247 14,0 C 25,2 C 8,5 km/h (2 Bft)
18.07.2019 15:50 24,8 C 25,4 C 19,0 C 25,9 C 25,9 C 49 % 48 % 64 % 1011,1 hPa 0,0 mm 8,2 km/h (2 Bft) NW 315 13,6 C 25,0 C 9,2 km/h (2 Bft)
18.07.2019 15:45 24,9 C 25,3 C 19,0 C 25,7 C 25,7 C 49 % 49 % 64 % 1011,1 hPa 0,0 mm 8,2 km/h (2 Bft) W-NW 292 13,8 C 24,9 C 5,6 km/h (1 Bft)
18.07.2019 15:40 24,8 C 25,3 C 19,0 C 25,7 C 25,7 C 49 % 48 % 64 % 1011,1 hPa 0,0 mm 5,7 km/h (1 Bft) W-SW 247 13,5 C 25,3 C 7,2 km/h (2 Bft)
18.07.2019 15:35 24,8 C 25,2 C 19,0 C 25,6 C 25,6 C 49 % 49 % 64 % 1011,1 hPa 0,0 mm 5,5 km/h (1 Bft) NW 315 13,7 C 25,2 C 3,2 km/h (1 Bft)
18.07.2019 15:30 24,9 C 25,1 C 19,1 C 25,3 C 25,3 C 49 % 49 % 64 % 1011,2 hPa 0,0 mm 8,9 km/h (2 Bft) W-SW 247 13,6 C 24,5 C 4,7 km/h (1 Bft)
18.07.2019 15:25 24,8 C 25,1 C 19,0 C 25,3 C 25,3 C 49 % 48 % 64 % 1011,2 hPa 0,0 mm 9,1 km/h (2 Bft) SW 225 13,3 C 24,5 C 6,8 km/h (2 Bft)
18.07.2019 15:20 24,8 C 25,1 C 19,0 C 25,5 C 25,5 C 49 % 49 % 64 % 1011,2 hPa 0,0 mm 6,6 km/h (2 Bft) SW 225 13,6 C 25,1 C 3,7 km/h (1 Bft)
18.07.2019 15:15 24,8 C 25,1 C 19,0 C 25,5 C 25,5 C 50 % 50 % 64 % 1011,2 hPa 0,0 mm 6,8 km/h (2 Bft) SO 135 13,9 C 25,0 C 6,0 km/h (2 Bft)
18.07.2019 15:10 24,9 C 25,0 C 19,0 C 25,6 C 25,6 C 50 % 50 % 64 % 1008,5 hPa 0,0 mm 7,3 km/h (2 Bft) S-SO 157 13,8 C 24,8 C 5,0 km/h (1 Bft)
18.07.2019 15:05 24,9 C 25,0 C 19,0 C 25,8 C 25,8 C 50 % 51 % 64 % 1008,5 hPa 0,0 mm 6,4 km/h (2 Bft) S-SW 202 14,1 C 25,0 C 6,8 km/h (2 Bft)
18.07.2019 15:00 24,8 C 25,1 C 19,0 C 26,2 C 26,2 C 50 % 53 % 64 % 1008,5 hPa 0,0 mm 5,9 km/h (2 Bft) SW 225 14,8 C 25,1 C 7,7 km/h (2 Bft)
18.07.2019 14:55 24,8 C 25,0 C 19,1 C 26,3 C 26,3 C 50 % 54 % 64 % 1008,5 hPa 0,0 mm 5,0 km/h (1 Bft) S 180 15,0 C 25,0 C 4,3 km/h (1 Bft)
18.07.2019 14:50 24,8 C 24,6 C 19,0 C 25,9 C 25,9 C 50 % 56 % 64 % 1009,1 hPa 0,0 mm 3,6 km/h (1 Bft) W-SW 247 15,2 C 24,6 C 6,4 km/h (2 Bft)
18.07.2019 14:45 24,7 C 24,3 C 19,0 C 25,4 C 25,4 C 50 % 58 % 64 % 1009,1 hPa 0,0 mm 3,4 km/h (1 Bft) W-SW 247 15,5 C 24,3 C 1,8 km/h (1 Bft)
18.07.2019 14:40 24,7 C 23,9 C 19,0 C 24,6 C 24,6 C 50 % 59 % 64 % 1009,1 hPa 0,0 mm 3,4 km/h (1 Bft) SW 225 15,4 C 23,9 C 3,7 km/h (1 Bft)
18.07.2019 14:35 24,6 C 23,6 C 19,0 C 24,1 C 24,1 C 50 % 60 % 64 % 1009,1 hPa 0,0 mm 3,2 km/h (1 Bft) SW 225 15,4 C 23,6 C 1,9 km/h (1 Bft)
18.07.2019 14:30 24,6 C 23,6 C 19,1 C 23,7 C 23,7 C 50 % 60 % 64 % 1009,4 hPa 0,0 mm 2,5 km/h (1 Bft) NW 315 15,4 C 23,6 C 6,8 km/h (2 Bft)
18.07.2019 14:25 24,6 C 23,5 C 19,1 C 23,3 C 23,0 C 49 % 60 % 64 % 1009,4 hPa 0,0 mm 1,6 km/h (1 Bft) W 270 15,3 C 23,5 C 1,8 km/h (1 Bft)
18.07.2019 14:20 24,5 C 23,3 C 19,1 C 22,8 C 21,8 C 49 % 58 % 64 % 1009,4 hPa 0,0 mm 2,0 km/h (1 Bft) W 270 14,6 C 23,3 C 3,4 km/h (1 Bft)
18.07.2019 14:15 24,5 C 23,2 C 19,1 C 22,4 C 20,7 C 49 % 55 % 64 % 1009,4 hPa 0,0 mm 2,5 km/h (1 Bft) W-SW 247 13,6 C 23,2 C 0,0 km/h (0 Bft)
18.07.2019 14:10 24,4 C 23,8 C 19,1 C 22,8 C 20,7 C 49 % 52 % 64 % 1009,5 hPa 0,0 mm 5,7 km/h (1 Bft) W 270 13,3 C 23,8 C 0,0 km/h (0 Bft)
18.07.2019 14:05 24,4 C 24,4 C 19,1 C 23,9 C 22,8 C 49 % 51 % 64 % 1009,5 hPa 0,0 mm 7,5 km/h (2 Bft) NW 315 13,6 C 24,1 C 4,8 km/h (1 Bft)
18.07.2019 14:00 24,5 C 25,2 C 19,1 C 24,9 C 24,4 C 49 % 46 % 64 % 1009,5 hPa 0,0 mm 8,2 km/h (2 Bft) SW 225 12,7 C 24,8 C 4,2 km/h (1 Bft)
18.07.2019 13:55 24,5 C 25,5 C 19,1 C 25,2 C 24,6 C 49 % 45 % 64 % 1009,5 hPa 0,0 mm 10,2 km/h (2 Bft) W-SW 247 12,7 C 24,7 C 7,6 km/h (2 Bft)
18.07.2019 13:50 24,4 C 26,1 C 19,1 C 25,9 C 25,6 C 49 % 42 % 64 % 1009,8 hPa 0,0 mm 12,7 km/h (3 Bft) W-SW 247 12,2 C 25,0 C 6,6 km/h (2 Bft)
18.07.2019 13:45 24,4 C 26,6 C 19,1 C 26,6 C 26,5 C 49 % 41 % 64 % 1009,8 hPa 0,0 mm 12,7 km/h (3 Bft) W-SW 247 12,2 C 25,5 C 21,9 km/h (4 Bft)
18.07.2019 13:40 24,4 C 27,2 C 19,1 C 27,2 C 27,2 C 49 % 39 % 64 % 1009,8 hPa 0,0 mm 13,0 km/h (3 Bft) S 180 12,0 C 26,2 C 20,6 km/h (4 Bft)
18.07.2019 13:35 24,3 C 27,4 C 19,1 C 27,6 C 27,6 C 49 % 39 % 64 % 1009,8 hPa 0,0 mm 11,8 km/h (2 Bft) O-SO 112 12,2 C 26,6 C 21,7 km/h (4 Bft)
18.07.2019 13:30 24,2 C 28,0 C 19,1 C 28,0 C 28,0 C 50 % 39 % 64 % 1010,5 hPa 0,0 mm 10,7 km/h (2 Bft) SW 225 12,7 C 27,4 C 15,3 km/h (3 Bft)
18.07.2019 13:25 24,1 C 28,1 C 19,1 C 28,1 C 28,1 C 50 % 39 % 64 % 1010,5 hPa 0,0 mm 10,5 km/h (2 Bft) SW 225 12,8 C 27,5 C 10,3 km/h (2 Bft)
18.07.2019 13:20 24,0 C 28,2 C 19,1 C 28,1 C 27,9 C 50 % 39 % 64 % 1010,5 hPa 0,0 mm 9,6 km/h (2 Bft) SW 225 12,9 C 27,7 C 16,1 km/h (3 Bft)
18.07.2019 13:15 24,0 C 28,0 C 19,1 C 28,3 C 28,3 C 50 % 38 % 64 % 1010,5 hPa 0,0 mm 8,6 km/h (2 Bft) S 180 12,3 C 27,7 C 15,0 km/h (3 Bft)
18.07.2019 13:10 23,9 C 28,2 C 19,1 C 28,5 C 28,5 C 50 % 38 % 64 % 1010,8 hPa 0,0 mm 8,2 km/h (2 Bft) SW 225 12,5 C 27,9 C 5,1 km/h (1 Bft)
18.07.2019 13:05 23,8 C 28,7 C 19,1 C 28,6 C 28,4 C 50 % 38 % 64 % 1010,8 hPa 0,0 mm 8,6 km/h (2 Bft) W-SW 247 13,0 C 28,4 C 10,0 km/h (2 Bft)
18.07.2019 13:00 23,7 C 28,8 C 19,1 C 29,0 C 29,0 C 51 % 37 % 64 % 1010,8 hPa 0,0 mm 9,3 km/h (2 Bft) SW 225 12,6 C 28,4 C 12,2 km/h (2 Bft)
18.07.2019 12:55 23,7 C 29,1 C 19,1 C 29,1 C 29,0 C 51 % 38 % 64 % 1010,8 hPa 0,0 mm 7,5 km/h (2 Bft) S 180 13,3 C 29,0 C 14,8 km/h (3 Bft)
18.07.2019 12:50 23,6 C 28,9 C 19,1 C 29,2 C 29,2 C 51 % 38 % 64 % 1011,1 hPa 0,0 mm 7,1 km/h (2 Bft) O 90 13,1 C 28,8 C 7,7 km/h (2 Bft)
18.07.2019 12:45 23,6 C 28,7 C 19,1 C 28,9 C 28,9 C 51 % 39 % 64 % 1011,1 hPa 0,0 mm 7,5 km/h (2 Bft) SW 225 13,4 C 28,6 C 7,1 km/h (2 Bft)
18.07.2019 12:40 23,5 C 28,8 C 19,0 C 28,8 C 28,8 C 51 % 39 % 64 % 1011,1 hPa 0,0 mm 5,9 km/h (2 Bft) W-NW 292 13,4 C 28,8 C 7,2 km/h (2 Bft)
18.07.2019 12:35 23,5 C 28,9 C 19,1 C 28,8 C 28,7 C 51 % 40 % 63 % 1011,1 hPa 0,0 mm 4,8 km/h (1 Bft) SW 225 13,9 C 28,9 C 5,6 km/h (1 Bft)
18.07.2019 12:30 23,4 C 28,6 C 19,1 C 28,5 C 28,4 C 51 % 41 % 63 % 1011,1 hPa 0,0 mm 5,0 km/h (1 Bft) NW 315 14,0 C 28,6 C 1,8 km/h (1 Bft)
18.07.2019 12:25 23,4 C 28,3 C 19,1 C 28,2 C 28,1 C 51 % 42 % 63 % 1011,1 hPa 0,0 mm 5,9 km/h (2 Bft) S 180 14,1 C 28,3 C 3,5 km/h (1 Bft)
18.07.2019 12:20 23,4 C 28,1 C 19,1 C 28,1 C 28,0 C 51 % 40 % 63 % 1011,1 hPa 0,0 mm 6,6 km/h (2 Bft) NW 315 13,2 C 28,1 C 7,6 km/h (2 Bft)
18.07.2019 12:15 23,4 C 27,9 C 19,1 C 27,8 C 27,7 C 51 % 41 % 64 % 1011,1 hPa 0,0 mm 6,6 km/h (2 Bft) W-SW 247 13,4 C 27,9 C 4,2 km/h (1 Bft)
18.07.2019 12:10 23,4 C 27,5 C 19,1 C 27,4 C 27,1 C 51 % 42 % 63 % 1011,2 hPa 0,0 mm 6,8 km/h (2 Bft) W-NW 292 13,4 C 27,4 C 4,5 km/h (1 Bft)
18.07.2019 12:05 23,4 C 27,5 C 19,1 C 27,4 C 27,1 C 51 % 42 % 63 % 1011,2 hPa 0,0 mm 6,8 km/h (2 Bft) W-NW 292 13,4 C 27,4 C 4,5 km/h (1 Bft)
18.07.2019 12:00 23,4 C 27,4 C 19,1 C 27,3 C 27,1 C 51 % 43 % 63 % 1011,2 hPa 0,0 mm 6,4 km/h (2 Bft) SW 225 13,7 C 27,4 C 6,9 km/h (2 Bft)
18.07.2019 11:55 23,4 C 27,1 C 19,1 C 27,0 C 26,8 C 51 % 44 % 64 % 1011,2 hPa 0,0 mm 6,1 km/h (2 Bft) W-SW 247 13,8 C 27,1 C 2,9 km/h (1 Bft)
18.07.2019 11:50 23,4 C 26,9 C 19,1 C 26,8 C 26,7 C 51 % 45 % 63 % 1011,3 hPa 0,0 mm 8,4 km/h (2 Bft) SW 225 13,9 C 26,5 C 8,4 km/h (2 Bft)
18.07.2019 11:45 23,4 C 26,8 C 19,1 C 26,7 C 26,6 C 51 % 46 % 63 % 1011,3 hPa 0,0 mm 8,2 km/h (2 Bft) S 180 14,2 C 26,5 C 4,2 km/h (1 Bft)
18.07.2019 11:40 23,4 C 26,9 C 19,1 C 26,9 C 26,8 C 51 % 46 % 63 % 1011,3 hPa 0,0 mm 7,1 km/h (2 Bft) SW 225 14,3 C 26,8 C 9,2 km/h (2 Bft)
18.07.2019 11:35 23,4 C 26,6 C 19,1 C 26,8 C 26,8 C 51 % 49 % 63 % 1011,3 hPa 0,0 mm 5,2 km/h (1 Bft) SW 225 15,0 C 26,6 C 5,1 km/h (1 Bft)
18.07.2019 11:30 23,4 C 26,3 C 19,1 C 26,3 C 26,3 C 51 % 50 % 63 % 1011,1 hPa 0,0 mm 5,0 km/h (1 Bft) NW 315 15,0 C 26,3 C 5,8 km/h (2 Bft)
18.07.2019 11:25 23,4 C 25,8 C 19,1 C 25,8 C 25,7 C 51 % 51 % 63 % 1011,1 hPa 0,0 mm 6,6 km/h (2 Bft) W 270 14,9 C 25,8 C 0,0 km/h (0 Bft)
18.07.2019 11:20 23,4 C 25,3 C 19,1 C 25,2 C 25,0 C 51 % 52 % 63 % 1011,1 hPa 0,0 mm 7,1 km/h (2 Bft) W-SW 247 14,7 C 25,1 C 6,9 km/h (2 Bft)
18.07.2019 11:15 23,4 C 24,9 C 19,1 C 24,8 C 24,6 C 51 % 52 % 63 % 1011,1 hPa 0,0 mm 5,7 km/h (1 Bft) S 180 14,4 C 24,9 C 9,0 km/h (2 Bft)
18.07.2019 11:10 23,5 C 24,4 C 19,1 C 24,3 C 24,0 C 51 % 55 % 63 % 1011,1 hPa 0,0 mm 3,9 km/h (1 Bft) W-NW 292 14,8 C 24,4 C 2,9 km/h (1 Bft)
18.07.2019 11:05 23,5 C 24,0 C 19,1 C 24,0 C 24,0 C 51 % 55 % 63 % 1011,1 hPa 0,0 mm 4,6 km/h (1 Bft) W 270 14,4 C 24,0 C 3,1 km/h (1 Bft)
18.07.2019 11:00 23,5 C 24,0 C 19,1 C 24,3 C 24,3 C 51 % 56 % 63 % 1011,1 hPa 0,0 mm 5,5 km/h (1 Bft) NW 315 14,7 C 24,0 C 1,9 km/h (1 Bft)
18.07.2019 10:55 23,5 C 24,3 C 19,1 C 24,4 C 24,4 C 51 % 56 % 63 % 1011,1 hPa 0,0 mm 5,9 km/h (2 Bft) W 270 14,9 C 24,3 C 4,7 km/h (1 Bft)
18.07.2019 10:50 23,4 C 24,1 C 19,1 C 24,3 C 24,3 C 51 % 56 % 63 % 1011,1 hPa 0,0 mm 5,0 km/h (1 Bft) SW 225 14,8 C 24,1 C 5,6 km/h (1 Bft)
18.07.2019 10:45 23,4 C 24,1 C 19,1 C 24,6 C 24,6 C 52 % 56 % 63 % 1011,1 hPa 0,0 mm 4,1 km/h (1 Bft) SW 225 14,8 C 24,1 C 8,9 km/h (2 Bft)
18.07.2019 10:40 23,4 C 24,2 C 19,1 C 25,0 C 25,0 C 52 % 56 % 63 % 1011,1 hPa 0,0 mm 5,5 km/h (1 Bft) SW 225 14,9 C 24,2 C 7,9 km/h (2 Bft)
18.07.2019 10:35 23,2 C 24,5 C 19,1 C 24,6 C 24,6 C 52 % 56 % 63 % 1011,1 hPa 0,0 mm 6,4 km/h (2 Bft) SW 225 15,1 C 24,5 C 6,4 km/h (2 Bft)
18.07.2019 10:30 23,2 C 23,8 C 19,1 C 24,1 C 24,1 C 52 % 56 % 63 % 1011,2 hPa 0,0 mm 7,3 km/h (2 Bft) S-SO 157 14,5 C 23,5 C 6,3 km/h (2 Bft)
18.07.2019 10:25 23,2 C 23,6 C 19,1 C 24,2 C 24,2 C 52 % 56 % 63 % 1011,2 hPa 0,0 mm 8,0 km/h (2 Bft) S 180 14,3 C 23,1 C 8,9 km/h (2 Bft)
18.07.2019 10:20 23,2 C 23,7 C 19,1 C 24,3 C 24,3 C 52 % 55 % 63 % 1011,2 hPa 0,0 mm 8,4 km/h (2 Bft) S 180 14,1 C 23,1 C 6,4 km/h (2 Bft)
18.07.2019 10:15 23,2 C 23,9 C 19,1 C 24,6 C 24,6 C 52 % 55 % 63 % 1011,2 hPa 0,0 mm 8,0 km/h (2 Bft) S-SO 157 14,3 C 23,4 C 14,2 km/h (3 Bft)
18.07.2019 10:10 23,0 C 23,9 C 19,1 C 24,1 C 24,1 C 53 % 57 % 63 % 1011,2 hPa 0,0 mm 7,3 km/h (2 Bft) S 180 14,9 C 23,6 C 4,2 km/h (1 Bft)
18.07.2019 10:05 23,0 C 23,2 C 19,1 C 24,5 C 24,5 C 53 % 56 % 63 % 1011,2 hPa 0,0 mm 6,6 km/h (2 Bft) SW 225 13,9 C 23,1 C 13,5 km/h (3 Bft)
18.07.2019 10:00 22,9 C 23,9 C 19,1 C 24,8 C 24,8 C 53 % 58 % 63 % 1011,2 hPa 0,0 mm 4,8 km/h (1 Bft) SO 135 15,1 C 23,9 C 6,1 km/h (2 Bft)
18.07.2019 09:55 22,8 C 23,5 C 19,1 C 24,3 C 24,3 C 53 % 59 % 63 % 1011,2 hPa 0,0 mm 5,5 km/h (1 Bft) S-SW 202 15,0 C 23,5 C 7,6 km/h (2 Bft)
18.07.2019 09:50 22,8 C 23,0 C 19,1 C 23,9 C 23,9 C 53 % 60 % 63 % 1011,2 hPa 0,0 mm 5,0 km/h (1 Bft) S-SW 202 14,8 C 23,0 C 7,1 km/h (2 Bft)
18.07.2019 09:45 22,8 C 22,7 C 19,1 C 23,7 C 23,7 C 53 % 61 % 63 % 1011,2 hPa 0,0 mm 4,3 km/h (1 Bft) SW 225 14,8 C 22,7 C 9,3 km/h (2 Bft)
18.07.2019 09:40 22,8 C 22,2 C 19,1 C 23,1 C 23,1 C 53 % 65 % 63 % 1011,2 hPa 0,0 mm 4,6 km/h (1 Bft) SW 225 15,3 C 22,2 C 2,3 km/h (1 Bft)
18.07.2019 09:35 22,7 C 21,8 C 19,1 C 22,5 C 22,5 C 53 % 66 % 63 % 1011,2 hPa 0,0 mm 3,4 km/h (1 Bft) S 180 15,2 C 21,8 C 3,1 km/h (1 Bft)
18.07.2019 09:30 22,7 C 21,0 C 19,1 C 21,5 C 21,5 C 53 % 69 % 63 % 1011,2 hPa 0,0 mm 3,0 km/h (1 Bft) SW 225 15,1 C 21,0 C 5,1 km/h (1 Bft)
18.07.2019 09:25 22,6 C 20,5 C 19,1 C 20,6 C 20,6 C 53 % 70 % 63 % 1011,2 hPa 0,0 mm 3,6 km/h (1 Bft) SW 225 14,8 C 20,5 C 3,9 km/h (1 Bft)
18.07.2019 09:20 22,6 C 19,8 C 19,1 C 20,7 C 20,7 C 53 % 70 % 63 % 1011,2 hPa 0,0 mm 5,0 km/h (1 Bft) S 180 14,2 C 19,8 C 3,1 km/h (1 Bft)
18.07.2019 09:15 22,6 C 19,9 C 19,1 C 21,1 C 21,1 C 53 % 71 % 63 % 1011,2 hPa 0,0 mm 5,7 km/h (1 Bft) S 180 14,5 C 19,9 C 3,4 km/h (1 Bft)
18.07.2019 09:10 22,6 C 20,3 C 19,2 C 21,5 C 21,5 C 53 % 72 % 63 % 1011,2 hPa 0,0 mm 5,0 km/h (1 Bft) SW 225 15,1 C 20,3 C 5,0 km/h (1 Bft)
18.07.2019 09:05 22,6 C 20,1 C 19,2 C 21,4 C 21,4 C 53 % 74 % 63 % 1011,2 hPa 0,0 mm 4,8 km/h (1 Bft) S 180 15,3 C 20,1 C 9,5 km/h (2 Bft)
18.07.2019 09:00 22,5 C 19,5 C 19,2 C 20,8 C 20,8 C 53 % 77 % 63 % 1011,2 hPa 0,0 mm 4,1 km/h (1 Bft) SW 225 15,4 C 19,5 C 0,0 km/h (0 Bft)
18.07.2019 08:55 22,5 C 19,1 C 19,2 C 20,2 C 20,2 C 53 % 80 % 63 % 1011,2 hPa 0,0 mm 3,0 km/h (1 Bft) SW 225 15,6 C 19,1 C 5,3 km/h (1 Bft)
18.07.2019 08:50 22,5 C 18,4 C 19,2 C 19,2 C 19,2 C 53 % 82 % 63 % 1011,1 hPa 0,0 mm 2,5 km/h (1 Bft) SW 225 15,3 C 18,4 C 2,6 km/h (1 Bft)
18.07.2019 08:45 22,4 C 17,9 C 19,2 C 18,5 C 18,5 C 53 % 83 % 63 % 1011,1 hPa 0,0 mm 1,8 km/h (1 Bft) O-SO 112 15,0 C 17,9 C 0,0 km/h (0 Bft)
18.07.2019 08:40 22,4 C 17,2 C 19,2 C 17,5 C 17,5 C 53 % 84 % 63 % 1011,1 hPa 0,0 mm 0,7 km/h (0 Bft) SW 225 14,5 C 17,2 C 1,9 km/h (1 Bft)
18.07.2019 08:35 22,2 C 16,7 C 19,2 C 16,8 C 16,8 C 53 % 84 % 63 % 1011,1 hPa 0,0 mm 0,2 km/h (0 Bft) O-SO 112 14,0 C 16,7 C 0,0 km/h (0 Bft)
18.07.2019 08:30 22,2 C 16,1 C 19,2 C 16,3 C 16,3 C 53 % 84 % 63 % 1011,2 hPa 0,0 mm 0,2 km/h (0 Bft) W-SW 247 13,4 C 16,1 C 0,0 km/h (0 Bft)
18.07.2019 08:25 22,2 C 15,9 C 19,2 C 16,2 C 16,2 C 53 % 85 % 63 % 1011,2 hPa 0,0 mm 1,1 km/h (1 Bft) S-SO 157 13,4 C 15,9 C 0,0 km/h (0 Bft)
18.07.2019 08:20 22,2 C 15,9 C 19,2 C 16,2 C 16,2 C 53 % 85 % 63 % 1011,2 hPa 0,0 mm 2,3 km/h (1 Bft) SW 225 13,4 C 15,9 C 0,0 km/h (0 Bft)
18.07.2019 08:15 22,1 C 15,8 C 19,2 C 16,2 C 16,2 C 53 % 85 % 63 % 1011,2 hPa 0,0 mm 2,3 km/h (1 Bft) S-SO 157 13,3 C 15,8 C 2,7 km/h (1 Bft)
18.07.2019 08:10 22,2 C 15,5 C 19,2 C 16,1 C 16,1 C 53 % 86 % 63 % 1011,3 hPa 0,0 mm 1,6 km/h (1 Bft) S-SW 202 13,2 C 15,5 C 2,3 km/h (1 Bft)
18.07.2019 08:05 22,1 C 15,4 C 19,2 C 16,0 C 16,0 C 53 % 86 % 63 % 1011,3 hPa 0,0 mm 1,6 km/h (1 Bft) O-SO 112 13,1 C 15,4 C 0,0 km/h (0 Bft)
18.07.2019 08:00 22,1 C 15,3 C 19,3 C 15,8 C 15,8 C 53 % 86 % 63 % 1011,3 hPa 0,0 mm 1,6 km/h (1 Bft) S-SO 157 13,0 C 15,3 C 3,5 km/h (1 Bft)
18.07.2019 07:55 22,1 C 15,2 C 19,3 C 15,7 C 15,7 C 53 % 87 % 63 % 1011,3 hPa 0,0 mm 0,9 km/h (0 Bft) NO 45 13,0 C 15,2 C 1,8 km/h (1 Bft)
18.07.2019 07:50 22,2 C 15,1 C 19,3 C 15,5 C 15,5 C 53 % 87 % 63 % 1011,3 hPa 0,0 mm 0,9 km/h (0 Bft) S-SO 157 13,0 C 15,1 C 0,0 km/h (0 Bft)
18.07.2019 07:45 22,1 C 15,0 C 19,3 C 15,6 C 15,6 C 53 % 87 % 63 % 1011,3 hPa 0,0 mm 1,1 km/h (1 Bft) O 90 12,9 C 15,0 C 0,0 km/h (0 Bft)
18.07.2019 07:40 22,2 C 14,9 C 19,3 C 15,7 C 15,7 C 53 % 88 % 63 % 1011,3 hPa 0,0 mm 2,0 km/h (1 Bft) SO 135 12,9 C 14,9 C 1,8 km/h (1 Bft)
18.07.2019 07:35 22,2 C 14,8 C 19,3 C 15,8 C 15,8 C 53 % 88 % 63 % 1011,3 hPa 0,0 mm 2,0 km/h (1 Bft) SW 225 12,8 C 14,8 C 4,8 km/h (1 Bft)
18.07.2019 07:30 22,2 C 14,6 C 19,3 C 15,7 C 15,7 C 53 % 89 % 63 % 1011,3 hPa 0,0 mm 0,9 km/h (0 Bft) SW 225 12,8 C 14,6 C 2,9 km/h (1 Bft)
18.07.2019 07:25 22,1 C 14,4 C 19,3 C 15,4 C 15,4 C 53 % 89 % 63 % 1011,3 hPa 0,0 mm 0,7 km/h (0 Bft) S 180 12,6 C 14,4 C 2,1 km/h (1 Bft)
18.07.2019 07:20 22,2 C 14,1 C 19,3 C 15,0 C 15,0 C 53 % 89 % 63 % 1011,3 hPa 0,0 mm 0,0 km/h (0 Bft) SW 225 12,3 C 14,1 C 2,1 km/h (1 Bft)
18.07.2019 07:15 22,2 C 13,9 C 19,3 C 14,9 C 14,9 C 53 % 89 % 63 % 1011,3 hPa 0,0 mm 0,0 km/h (0 Bft) W-SW 247 12,1 C 13,9 C 0,0 km/h (0 Bft)
18.07.2019 07:10 22,2 C 13,6 C 19,3 C 14,6 C 14,6 C 53 % 90 % 63 % 1011,4 hPa 0,0 mm 0,0 km/h (0 Bft) S-SO 157 12,0 C 13,6 C 0,0 km/h (0 Bft)
18.07.2019 07:05 22,2 C 13,5 C 19,4 C 14,3 C 14,3 C 53 % 90 % 63 % 1011,4 hPa 0,0 mm 0,0 km/h (0 Bft) S-SO 157 11,9 C 13,5 C 0,0 km/h (0 Bft)
18.07.2019 07:00 22,2 C 13,1 C 19,4 C 13,8 C 13,8 C 53 % 90 % 63 % 1011,4 hPa 0,0 mm 0,0 km/h (0 Bft) S-SO 157 11,5 C 13,1 C 0,0 km/h (0 Bft)
18.07.2019 06:55 22,2 C 12,9 C 19,4 C 13,4 C 13,4 C 53 % 89 % 63 % 1011,4 hPa 0,0 mm 0,2 km/h (0 Bft) S 180 11,1 C 12,9 C 0,0 km/h (0 Bft)
18.07.2019 06:50 22,2 C 12,7 C 19,4 C 13,1 C 13,1 C 53 % 89 % 63 % 1011,3 hPa 0,0 mm 0,2 km/h (0 Bft) S 180 10,9 C 12,7 C 0,0 km/h (0 Bft)
18.07.2019 06:45 22,2 C 12,6 C 19,4 C 12,8 C 12,8 C 53 % 89 % 63 % 1011,3 hPa 0,0 mm 0,0 km/h (0 Bft) W-SW 247 10,8 C 12,6 C 0,0 km/h (0 Bft)
18.07.2019 06:40 22,2 C 12,4 C 19,4 C 12,4 C 12,4 C 53 % 88 % 63 % 1011,3 hPa 0,0 mm 0,0 km/h (0 Bft) W-SW 247 10,5 C 12,4 C 0,0 km/h (0 Bft)
18.07.2019 06:35 22,2 C 12,3 C 19,4 C 12,3 C 12,3 C 53 % 88 % 63 % 1011,3 hPa 0,0 mm 0,0 km/h (0 Bft) W-SW 247 10,4 C 12,3 C 0,0 km/h (0 Bft)
18.07.2019 06:30 22,2 C 12,2 C 19,5 C 12,2 C 12,2 C 53 % 88 % 63 % 1011,3 hPa 0,0 mm 0,0 km/h (0 Bft) W-SW 247 10,3 C 12,2 C 0,0 km/h (0 Bft)
18.07.2019 06:25 22,2 C 12,2 C 19,5 C 12,2 C 12,1 C 53 % 88 % 63 % 1011,3 hPa 0,0 mm 0,0 km/h (0 Bft) W-SW 247 10,3 C 12,2 C 0,0 km/h (0 Bft)
18.07.2019 06:20 22,3 C 12,0 C 19,5 C 12,0 C 11,9 C 53 % 88 % 63 % 1011,3 hPa 0,0 mm 0,0 km/h (0 Bft) S-SO 157 10,1 C 12,0 C 0,0 km/h (0 Bft)
18.07.2019 06:15 22,2 C 12,0 C 19,5 C 11,9 C 11,7 C 53 % 88 % 63 % 1011,3 hPa 0,0 mm 0,0 km/h (0 Bft) NO 45 10,1 C 12,0 C 0,0 km/h (0 Bft)
18.07.2019 06:10 22,2 C 12,0 C 19,5 C 11,9 C 11,7 C 53 % 87 % 63 % 1011,4 hPa 0,0 mm 0,2 km/h (0 Bft) NO 45 9,9 C 12,0 C 0,0 km/h (0 Bft)
18.07.2019 06:05 22,3 C 12,0 C 19,5 C 11,9 C 11,7 C 53 % 87 % 63 % 1011,4 hPa 0,0 mm 0,2 km/h (0 Bft) NO 45 9,9 C 12,0 C 0,0 km/h (0 Bft)
18.07.2019 06:00 22,2 C 12,0 C 19,5 C 11,9 C 11,8 C 53 % 87 % 63 % 1011,4 hPa 0,0 mm 0,2 km/h (0 Bft) NO 45 9,9 C 12,0 C 0,0 km/h (0 Bft)
18.07.2019 05:55 22,2 C 12,0 C 19,6 C 11,9 C 11,8 C 53 % 87 % 63 % 1011,4 hPa 0,0 mm 0,0 km/h (0 Bft) N-NO 22 9,9 C 12,0 C 0,0 km/h (0 Bft)
18.07.2019 05:50 22,2 C 12,1 C 19,6 C 12,0 C 11,9 C 53 % 87 % 63 % 1011,6 hPa 0,0 mm 0,0 km/h (0 Bft) SW 225 10,0 C 12,1 C 0,0 km/h (0 Bft)
18.07.2019 05:45 22,2 C 12,2 C 19,6 C 12,1 C 12,0 C 53 % 87 % 63 % 1011,6 hPa 0,0 mm 0,2 km/h (0 Bft) SW 225 10,1 C 12,2 C 0,0 km/h (0 Bft)
18.07.2019 05:40 22,3 C 12,1 C 19,7 C 12,1 C 12,0 C 53 % 87 % 63 % 1011,6 hPa 0,0 mm 0,0 km/h (0 Bft) W-SW 247 10,0 C 12,1 C 0,0 km/h (0 Bft)
18.07.2019 05:35 22,3 C 12,0 C 19,7 C 11,9 C 11,8 C 53 % 87 % 63 % 1011,6 hPa 0,0 mm 0,0 km/h (0 Bft) SW 225 9,9 C 12,0 C 0,0 km/h (0 Bft)
18.07.2019 05:30 22,3 C 12,0 C 19,7 C 11,9 C 11,7 C 53 % 87 % 63 % 1011,6 hPa 0,0 mm 0,0 km/h (0 Bft) NO 45 9,9 C 12,0 C 0,0 km/h (0 Bft)
18.07.2019 05:25 22,3 C 12,0 C 19,7 C 11,9 C 11,7 C 53 % 87 % 63 % 1011,6 hPa 0,0 mm 0,0 km/h (0 Bft) N 360 9,9 C 12,0 C 0,0 km/h (0 Bft)
18.07.2019 05:20 22,3 C 12,1 C 19,8 C 12,0 C 11,7 C 53 % 87 % 63 % 1011,6 hPa 0,0 mm 0,0 km/h (0 Bft) N 360 10,0 C 12,1 C 0,0 km/h (0 Bft)
18.07.2019 05:15 22,3 C 12,1 C 19,8 C 12,0 C 11,7 C 53 % 87 % 63 % 1011,6 hPa 0,0 mm 0,0 km/h (0 Bft) N 360 10,0 C 12,1 C 0,0 km/h (0 Bft)
18.07.2019 05:10 22,2 C 12,1 C 19,7 C 12,0 C 11,7 C 52 % 87 % 63 % 1011,8 hPa 0,0 mm 0,0 km/h (0 Bft) N 360 10,0 C 12,1 C 0,0 km/h (0 Bft)
18.07.2019 05:05 22,3 C 12,2 C 19,8 C 12,0 C 11,7 C 53 % 86 % 63 % 1011,8 hPa 0,0 mm 0,0 km/h (0 Bft) N 360 9,9 C 12,2 C 0,0 km/h (0 Bft)
18.07.2019 05:00 22,2 C 12,3 C 19,7 C 12,2 C 11,9 C 52 % 86 % 63 % 1011,8 hPa 0,0 mm 0,0 km/h (0 Bft) N 360 10,0 C 12,3 C 0,0 km/h (0 Bft)
18.07.2019 04:55 22,2 C 12,3 C 19,7 C 12,2 C 12,0 C 53 % 86 % 63 % 1011,8 hPa 0,0 mm 0,0 km/h (0 Bft) N 360 10,0 C 12,3 C 0,0 km/h (0 Bft)
18.07.2019 04:50 22,4 C 12,4 C 19,7 C 12,3 C 12,2 C 52 % 86 % 63 % 1012,3 hPa 0,0 mm 0,0 km/h (0 Bft) N 360 10,1 C 12,4 C 0,0 km/h (0 Bft)
18.07.2019 04:45 22,4 C 12,5 C 19,8 C 12,4 C 12,2 C 52 % 87 % 63 % 1012,3 hPa 0,0 mm 0,0 km/h (0 Bft) N 360 10,4 C 12,5 C 0,0 km/h (0 Bft)
18.07.2019 04:40 22,4 C 12,5 C 19,7 C 12,4 C 12,3 C 52 % 87 % 63 % 1012,3 hPa 0,0 mm 0,0 km/h (0 Bft) O 90 10,4 C 12,5 C 0,0 km/h (0 Bft)
18.07.2019 04:35 22,4 C 12,6 C 19,7 C 12,5 C 12,3 C 52 % 87 % 63 % 1012,3 hPa 0,0 mm 0,0 km/h (0 Bft) N 360 10,5 C 12,6 C 0,0 km/h (0 Bft)
18.07.2019 04:30 22,4 C 12,5 C 19,7 C 12,4 C 12,3 C 52 % 86 % 63 % 1012,3 hPa 0,0 mm 0,0 km/h (0 Bft) O-SO 112 10,2 C 12,5 C 0,0 km/h (0 Bft)
18.07.2019 04:25 22,4 C 12,6 C 19,7 C 12,5 C 12,3 C 52 % 86 % 63 % 1012,3 hPa 0,0 mm 0,0 km/h (0 Bft) NO 45 10,3 C 12,6 C 0,0 km/h (0 Bft)
18.07.2019 04:20 22,4 C 12,6 C 19,7 C 12,5 C 12,4 C 52 % 87 % 63 % 1012,3 hPa 0,0 mm 0,2 km/h (0 Bft) S 180 10,5 C 12,6 C 2,3 km/h (1 Bft)
18.07.2019 04:15 22,4 C 12,6 C 19,7 C 12,5 C 12,4 C 52 % 87 % 63 % 1012,3 hPa 0,0 mm 0,2 km/h (0 Bft) O-SO 112 10,5 C 12,6 C 0,0 km/h (0 Bft)
18.07.2019 04:10 22,4 C 12,5 C 19,7 C 12,4 C 12,3 C 52 % 86 % 63 % 1012,2 hPa 0,0 mm 0,0 km/h (0 Bft) S-SW 202 10,2 C 12,5 C 0,0 km/h (0 Bft)
18.07.2019 04:05 22,4 C 12,6 C 19,7 C 12,5 C 12,4 C 52 % 86 % 63 % 1012,2 hPa 0,0 mm 0,0 km/h (0 Bft) N-NO 22 10,3 C 12,6 C 0,0 km/h (0 Bft)
18.07.2019 04:00 22,4 C 12,6 C 19,7 C 12,5 C 12,4 C 52 % 86 % 63 % 1012,2 hPa 0,0 mm 0,0 km/h (0 Bft) S 180 10,3 C 12,6 C 0,0 km/h (0 Bft)
18.07.2019 03:55 22,4 C 12,5 C 19,7 C 12,5 C 12,4 C 52 % 86 % 63 % 1012,2 hPa 0,0 mm 0,0 km/h (0 Bft) NW 315 10,2 C 12,5 C 0,0 km/h (0 Bft)
18.07.2019 03:50 22,5 C 12,5 C 19,7 C 12,5 C 12,5 C 52 % 87 % 63 % 1012,4 hPa 0,0 mm 0,0 km/h (0 Bft) NO 45 10,4 C 12,5 C 0,0 km/h (0 Bft)
18.07.2019 03:45 22,5 C 12,6 C 19,7 C 12,6 C 12,5 C 52 % 87 % 63 % 1012,4 hPa 0,0 mm 0,5 km/h (0 Bft) N-NO 22 10,5 C 12,6 C 0,0 km/h (0 Bft)
18.07.2019 03:40 22,5 C 12,5 C 19,7 C 12,5 C 12,5 C 52 % 87 % 63 % 1012,4 hPa 0,0 mm 1,1 km/h (1 Bft) S-SO 157 10,4 C 12,5 C 0,0 km/h (0 Bft)
18.07.2019 03:35 22,5 C 12,3 C 19,7 C 12,3 C 12,3 C 52 % 86 % 63 % 1012,4 hPa 0,0 mm 0,7 km/h (0 Bft) SW 225 10,0 C 12,3 C 4,3 km/h (1 Bft)
18.07.2019 03:30 22,5 C 12,2 C 19,7 C 12,2 C 12,1 C 52 % 85 % 63 % 1012,6 hPa 0,0 mm 0,0 km/h (0 Bft) S-SW 202 9,8 C 12,2 C 1,8 km/h (1 Bft)
18.07.2019 03:25 22,6 C 12,2 C 19,7 C 12,2 C 12,2 C 52 % 85 % 63 % 1012,6 hPa 0,0 mm 0,0 km/h (0 Bft) O-NO 67 9,8 C 12,2 C 0,0 km/h (0 Bft)
18.07.2019 03:20 22,6 C 12,3 C 19,7 C 12,3 C 12,3 C 52 % 86 % 63 % 1012,6 hPa 0,0 mm 0,0 km/h (0 Bft) O-NO 67 10,0 C 12,3 C 0,0 km/h (0 Bft)
18.07.2019 03:15 22,6 C 12,3 C 19,7 C 12,3 C 12,3 C 52 % 85 % 63 % 1012,6 hPa 0,0 mm 0,0 km/h (0 Bft) O-NO 67 9,9 C 12,3 C 0,0 km/h (0 Bft)
18.07.2019 03:10 22,6 C 12,3 C 19,7 C 12,3 C 12,3 C 52 % 85 % 63 % 1012,8 hPa 0,0 mm 0,0 km/h (0 Bft) O-NO 67 9,9 C 12,3 C 0,0 km/h (0 Bft)
18.07.2019 03:05 22,6 C 12,4 C 19,7 C 12,5 C 12,5 C 52 % 86 % 63 % 1012,8 hPa 0,0 mm 0,0 km/h (0 Bft) O-NO 67 10,1 C 12,4 C 0,0 km/h (0 Bft)
18.07.2019 03:00 22,6 C 12,4 C 19,7 C 12,5 C 12,5 C 52 % 86 % 63 % 1012,8 hPa 0,0 mm 0,0 km/h (0 Bft) S-SO 157 10,1 C 12,4 C 0,0 km/h (0 Bft)
_ Min-Zeit 07:25 05:25 18:40 05:25 05:05 16:30 13:00 03:00 14:55 - 03:00 - - 03:25 05:25 03:00
Minimum _ 22,1 C 12,0 C 18,9 C 11,9 C 11,7 C 47 % 37 % 63 % 1008,5 hPa - 0,0 km/h (0 Bft) - - 9,8 C 12,0 C 0,0 km/h (0 Bft)
_ Max-Zeit 16:45 12:55 04:45 12:50 12:50 04:55 07:00 11:55 01:15 03:00 13:40 - - 08:55 12:55 13:45
Maximum _ 25,8 C 29,1 C 19,8 C 29,2 C 29,2 C 53 % 90 % 64 % 1013,1 hPa 0,0 mm 13,0 km/h
S (3 Bft)
- - 15,6 C 29,0 C 21,9 km/h
W-SW (4 Bft)
Durchschnitt _ 23,4 C 19,9 C 19,3 C 20,0 C 19,9 C 51 % 66 % 63 % 1011,5 hPa #0,0 mm 3,4 km/h (1 Bft) SW - 12,7 C 19,8 C 3,4 km/h (1 Bft)